Weather History for Norwood, MA

Change the Weather History Date:

Sunday, March 3, 2013

  Actual Average Record
Temperature  
Mean Temperature 38 °F -  
Max Temperature 42 °F 40 °F 60 °F (2002)
Min Temperature 33 °F 23 °F 6 °F (2014)
Degree Days  
Heating Degree Days 28    
Moisture  
Dew Point 27 °F    
Average Humidity 71    
Maximum Humidity 93    
Minimum Humidity 58    
Precipitation  
Precipitation 0.00 in - - ()
Sea Level Pressure  
Sea Level Pressure 29.61 in    
Wind  
Wind Speed 6 mph (WNW)    
Max Wind Speed 9 mph    
Max Gust Speed 26 mph    
Visibility 10 miles    
Events Snow    
Averages and records for this station are not official NWS values.
T = Trace of Precipitation, MM = Missing Value Source: NWS Daily Summary

Daily Weather History Graph

Daily Weather History Graph

Search for Another Location

Airport:

Trip Planner

Search our weather history database for the weather conditions in past years. The results will help you decide how hot, cold, wet, or windy it might be!

Date:

Astronomy

Mar. 03, 2013 Rise Set
Actual Time 6:16 AM EST 5:37 PM EST
Civil Twilight 5:48 AM EST 6:05 PM EST
Nautical Twilight 5:15 AM EST 6:37 PM EST
Astronomical Twilight 4:43 AM EST 7:10 PM EST
Moon No Moon Rise 9:21 AM EST (3/3)
Length of Visible Light 12h 17m
Length of Day
11h 21m
Waning Gibbous, 64% of the Moon is Illuminated
Mar 3
Waning Gibbous
Mar 4
Last Quarter
Mar 11
New
Mar 19
First Quarter
Mar 27
Full

Hourly Weather History & Observations

Time (EST) Temp. Windchill Dew Point Humidity Pressure Visibility Wind Dir Wind Speed Gust Speed Precip Events Conditions
12:53 AM 35.1 °F 31.0 °F 24.1 °F 64% 29.65 in 10.0 mi NW 4.6 mph - N/A   Overcast
1:02 AM 35.6 °F 31.7 °F 24.8 °F 65% 29.64 in 10.0 mi NW 4.6 mph - N/A   Overcast
1:53 AM 35.1 °F 30.1 °F 24.1 °F 64% 29.64 in 10.0 mi NW 5.8 mph - N/A   Overcast
2:53 AM 34.0 °F 28.0 °F 24.1 °F 67% 29.62 in 10.0 mi NW 6.9 mph - N/A   Overcast
3:24 AM 33.8 °F 29.6 °F 24.8 °F 70% 29.62 in 10.0 mi NNW 4.6 mph - N/A   Overcast
3:53 AM 34.0 °F 31.0 °F 24.1 °F 67% 29.62 in 10.0 mi NW 3.5 mph - N/A   Overcast
4:53 AM 34.0 °F 31.0 °F 24.1 °F 67% 29.62 in 10.0 mi NW 3.5 mph - N/A   Overcast
5:53 AM 34.0 °F 29.8 °F 25.0 °F 70% 29.63 in 10.0 mi WNW 4.6 mph - N/A   Overcast
6:10 AM 33.8 °F 29.6 °F 24.8 °F 70% 29.63 in 10.0 mi WNW 4.6 mph - N/A   Overcast
6:20 AM 33.8 °F 30.8 °F 24.8 °F 70% 29.63 in 10.0 mi WNW 3.5 mph - N/A   Overcast
6:53 AM 34.0 °F 29.8 °F 24.1 °F 67% 29.63 in 10.0 mi WNW 4.6 mph - N/A   Overcast
7:53 AM 34.0 °F 28.8 °F 24.1 °F 67% 29.64 in 10.0 mi WNW 5.8 mph - N/A   Overcast
8:53 AM 35.1 °F 29.3 °F 24.1 °F 64% 29.63 in 10.0 mi NW 6.9 mph - N/A   Overcast
9:53 AM 36.0 °F 31.1 °F 25.0 °F 64% 29.62 in 10.0 mi WNW 5.8 mph - N/A   Overcast
10:53 AM 37.9 °F 33.5 °F 26.1 °F 62% 29.61 in 10.0 mi NNW 5.8 mph - N/A   Overcast
11:53 AM 39.0 °F 34.0 °F 26.1 °F 60% 29.60 in 10.0 mi West 6.9 mph - N/A   Overcast
12:53 PM 42.1 °F 38.4 °F 28.0 °F 58% 29.57 in 10.0 mi West 5.8 mph - N/A   Overcast
1:53 PM 42.1 °F 37.7 °F 28.0 °F 58% 29.56 in 10.0 mi NW 6.9 mph - N/A   Overcast
2:53 PM 42.1 °F 36.6 °F 28.9 °F 60% 29.56 in 10.0 mi WNW 9.2 mph - N/A   Overcast
3:53 PM 42.1 °F 36.6 °F 28.9 °F 60% 29.56 in 10.0 mi NW 9.2 mph - N/A   Overcast
4:53 PM 39.9 °F 33.9 °F 30.0 °F 68% 29.57 in 10.0 mi WNW 9.2 mph - N/A   Overcast
5:53 PM 37.0 °F 31.0 °F 32.0 °F 82% 29.59 in 10.0 mi WNW 8.1 mph - N/A   Overcast
6:53 PM 36.0 °F 30.3 °F 32.0 °F 86% 29.60 in 10.0 mi WNW 6.9 mph 26.5 mph N/A   Overcast
7:53 PM 35.1 °F 30.1 °F 32.0 °F 89% 29.61 in 10.0 mi WNW 5.8 mph - N/A   Overcast
8:32 PM 33.8 °F 27.7 °F 32.0 °F 93% 29.61 in 6.0 mi WNW 6.9 mph - 0.00 in Snow Light Snow
8:53 PM 34.0 °F 27.2 °F 32.0 °F 92% 29.61 in 5.0 mi West 8.1 mph - 0.00 in Snow Light Snow
9:53 PM 34.0 °F 28.0 °F 30.9 °F 89% 29.61 in 5.0 mi West 6.9 mph - 0.00 in Snow Light Snow
10:53 PM 33.1 °F 27.7 °F 30.0 °F 89% 29.60 in 10.0 mi West 5.8 mph - 0.00 in   Overcast
11:53 PM 34.0 °F 28.0 °F 28.0 °F 79% 29.60 in 10.0 mi West 6.9 mph - N/A   Overcast